User: anonymous
Location: Unspecified
(0.0000°N, 0.0000°E)
Time: 01:48:58
(UTC+00:00)
Language:

Aussat K1 - Orbit

View from above orbital plane
View from above orbital plane
View from above satellite
View from above satellite

Ground track
Ground track

The orbit data is extracted from the following two-line orbital elements,

1 15993U 85076B   14106.84870262  .00000018  00000-0  00000+0 0  7741
2 15993 014.7405 019.9183 0000684 342.7223 166.8919 00.99765387 75244
Epoch (UTC): 16 April 2014 20:22:07
Eccentricity: 0.0000684
inclination: 14.7405°
perigee height: 35926 km
apogee height: 35931 km
right ascension of ascending node: 19.9183°
argument of perigee: 342.7223°
revolutions per day: 0.99765387
mean anomaly at epoch: 166.8919°
orbit number at epoch: 7524

The dashed part of the orbit path shows where the satellite is in the earth's shadow,  

DLR